Location: *
(58.4167°N, 22.5000°E)
Time: 01:05:26
(UTC+00:00)

Meteor 2-15 Rocket - Pass Details

Date: 22 September 2019
Orbit: 939 x 956 km, 82.5° (Epoch: 19 October)

Event Time Altitude Azimuth Distance (km) Brightness Sun altitude
Rises 17:07:55 0° 180° (S) 3,624 7.4 -5.7°
Reaches altitude 10° 17:10:24 10° 178° (S) 2,683 6.7 -6.0°
Maximum altitude 17:16:29 68° 98° (E) 1,030 4.5 -6.8°
Drops below altitude 10° 17:22:37 10° 16° (NNE) 2,700 6.8 -7.6°
Sets 17:25:08 0° 15° (NNE) 3,649 7.5 -7.9°
